| time (UTC) | temp C | wind direction | speed KPH | gust KPH | rain 1hr cm | rain 24hr cm | rain mn cm | humidity % | barometer mb |
| 20260421005250 | 1 | 249 | 0.0 | 0.0 | 0.00 | 0.03 | 0.03 | 61 | 1027.1 |
| 20260421004747 | 2 | 248 | 0.0 | 0.0 | 0.00 | 0.03 | 0.03 | 58 | 1027.3 |
| 20260421004243 | 2 | 251 | 0.0 | 0.0 | 0.00 | 0.03 | 0.03 | 56 | 1027.1 |
| 20260421003740 | 2 | 236 | 0.0 | 0.0 | 0.00 | 0.03 | 0.03 | 56 | 1027.1 |
| 20260421003238 | 2 | 261 | 1.6 | 1.6 | 0.00 | 0.03 | 0.03 | 56 | 1027.1 |
| 20260421002734 | 2 | 265 | 1.6 | 1.6 | 0.00 | 0.03 | 0.03 | 57 | 1027.0 |
| 20260421002232 | 2 | 305 | 4.8 | 4.8 | 0.00 | 0.03 | 0.03 | 56 | 1026.9 |
| 20260421001729 | 2 | 255 | 0.0 | 0.0 | 0.00 | 0.03 | 0.03 | 56 | 1026.8 |
| 20260421001226 | 2 | 268 | 1.6 | 3.2 | 0.00 | 0.03 | 0.03 | 57 | 1027.0 |
| 20260421000722 | 2 | 284 | 4.8 | 4.8 | 0.00 | 0.03 | 0.03 | 56 | 1026.8 |
| 20260421000219 | 2 | 299 | 4.8 | 8.0 | 0.00 | 0.03 | 0.03 | 56 | 1026.7 |
| 20260420235715 | 2 | 304 | 8.0 | 9.7 | 0.00 | 0.03 | 0.03 | 56 | 1026.7 |
| 20260420235211 | 3 | 264 | 4.8 | 4.8 | 0.00 | 0.03 | 0.03 | 55 | 1026.3 |
| 20260420234707 | 3 | 318 | 8.0 | 8.0 | 0.00 | 0.03 | 0.03 | 55 | 1026.6 |
| 20260420234203 | 3 | 301 | 6.4 | 8.0 | 0.00 | 0.03 | 0.03 | 54 | 1026.7 |
| 20260420233659 | 3 | 0 | 8.0 | 9.7 | 0.00 | 0.03 | 0.03 | 52 | 1026.7 |
| 20260420233156 | 3 | 347 | 14.5 | 17.7 | 0.00 | 0.03 | 0.03 | 54 | 1026.6 |
| 20260420232654 | 3 | 352 | 11.3 | 12.9 | 0.00 | 0.03 | 0.03 | 52 | 1026.6 |
| 20260420232149 | 3 | 274 | 6.4 | 8.0 | 0.00 | 0.03 | 0.03 | 55 | 1026.6 |
| 20260420231643 | 4 | 300 | 9.7 | 11.3 | 0.00 | 0.03 | 0.03 | 51 | 1026.6 |
| 20260420231140 | 4 | 310 | 4.8 | 4.8 | 0.00 | 0.03 | 0.03 | 49 | 1026.6 |
| 20260420230637 | 3 | 290 | 8.0 | 9.7 | 0.00 | 0.03 | 0.03 | 52 | 1026.5 |
| 20260420230133 | 4 | 355 | 14.5 | 16.1 | 0.00 | 0.03 | 0.03 | 50 | 1026.5 |
| 20260420225630 | 4 | 294 | 14.5 | 14.5 | 0.00 | 0.03 | 0.03 | 49 | 1026.5 |
| 20260420225127 | 4 | 304 | 11.3 | 14.5 | 0.00 | 0.03 | 0.03 | 50 | 1026.0 |
| 20260420224627 | 5 | 275 | 8.0 | 11.3 | 0.00 | 0.03 | 0.03 | 51 | 1026.3 |
| 20260420224124 | 5 | 352 | 12.9 | 14.5 | 0.00 | 0.03 | 0.03 | 48 | 1026.3 |
| 20260420223620 | 5 | 29 | 14.5 | 14.5 | 0.00 | 0.03 | 0.03 | 47 | 1026.3 |
| 20260420223116 | 5 | 285 | 8.0 | 9.7 | 0.00 | 0.03 | 0.03 | 50 | 1026.1 |
| 20260420222613 | 5 | 261 | 8.0 | 9.7 | 0.00 | 0.03 | 0.03 | 48 | 1026.5 |
| 20260420222109 | 5 | 324 | 12.9 | 16.1 | 0.00 | 0.03 | 0.03 | 50 | 1026.5 |
| 20260420221603 | 5 | 25 | 8.0 | 9.7 | 0.00 | 0.03 | 0.03 | 52 | 1026.6 |
| 20260420221100 | 5 | 298 | 17.7 | 20.9 | 0.00 | 0.03 | 0.03 | 48 | 1026.6 |
| 20260420220556 | 5 | 43 | 6.4 | 9.7 | 0.00 | 0.03 | 0.03 | 51 | 1026.3 |
| 20260420220053 | 5 | 295 | 11.3 | 12.9 | 0.00 | 0.03 | 0.03 | 49 | 1026.2 |
| 20260420215550 | 5 | 358 | 17.7 | 22.5 | 0.00 | 0.03 | 0.03 | 51 | 1025.9 |
| 20260420215048 | 5 | 357 | 8.0 | 11.3 | 0.00 | 0.03 | 0.03 | 51 | 1026.0 |
| 20260420214543 | 5 | 10 | 14.5 | 17.7 | 0.00 | 0.03 | 0.03 | 47 | 1026.1 |
| 20260420214038 | 5 | 328 | 17.7 | 20.9 | 0.00 | 0.03 | 0.03 | 49 | 1026.1 |
| 20260420213538 | 5 | 337 | 16.1 | 20.9 | 0.00 | 0.03 | 0.03 | 51 | 1026.3 |
| 20260420213034 | 5 | 20 | 11.3 | 12.9 | 0.00 | 0.03 | 0.03 | 50 | 1026.1 |
| 20260420212533 | 5 | 290 | 12.9 | 14.5 | 0.00 | 0.03 | 0.03 | 53 | 1026.1 |
| 20260420212030 | 5 | 7 | 20.9 | 29.0 | 0.00 | 0.03 | 0.03 | 49 | 1025.7 |
| 20260420211526 | 5 | 336 | 8.0 | 9.7 | 0.00 | 0.03 | 0.03 | 52 | 1026.0 |
| 20260420211022 | 5 | 311 | 11.3 | 14.5 | 0.00 | 0.03 | 0.03 | 52 | 1026.0 |
| 20260420210519 | 5 | 327 | 19.3 | 22.5 | 0.00 | 0.03 | 0.03 | 51 | 1025.8 |
| 20260420210016 | 5 | 304 | 9.7 | 11.3 | 0.00 | 0.03 | 0.03 | 48 | 1025.8 |
| 20260420205511 | 5 | 320 | 16.1 | 20.9 | 0.00 | 0.03 | 0.03 | 52 | 1025.8 |
| 20260420205008 | 5 | 345 | 25.7 | 32.2 | 0.00 | 0.03 | 0.03 | 50 | 1025.6 |
| 20260420204502 | 5 | 284 | 9.7 | 12.9 | 0.00 | 0.03 | 0.03 | 51 | 1025.9 |
| 20260420203959 | 3 | 275 | 8.0 | 11.3 | 0.00 | 0.03 | 0.03 | 54 | 1025.8 |
| 20260420203456 | 4 | 340 | 9.7 | 12.9 | 0.00 | 0.03 | 0.03 | 54 | 1025.8 |
| 20260420202951 | 4 | 24 | 11.3 | 14.5 | 0.00 | 0.03 | 0.03 | 51 | 1025.6 |
| 20260420202449 | 5 | 346 | 11.3 | 14.5 | 0.00 | 0.03 | 0.03 | 53 | 1025.7 |
| 20260420201945 | 5 | 26 | 6.4 | 9.7 | 0.00 | 0.03 | 0.03 | 52 | 1025.7 |
| 20260420201442 | 5 | 348 | 17.7 | 22.5 | 0.00 | 0.03 | 0.03 | 52 | 1025.4 |
| 20260420200938 | 5 | 356 | 16.1 | 22.5 | 0.00 | 0.03 | 0.03 | 52 | 1025.7 |
| 20260420200432 | 5 | 307 | 17.7 | 24.1 | 0.00 | 0.03 | 0.03 | 51 | 1025.4 |
| 20260420195927 | 5 | 283 | 11.3 | 14.5 | 0.00 | 0.03 | 0.03 | 53 | 1025.5 |
| 20260420195425 | 5 | 6 | 19.3 | 22.5 | 0.00 | 0.03 | 0.03 | 53 | 1025.5 |
| 20260420194923 | 3 | 298 | 12.9 | 14.5 | 0.00 | 0.03 | 0.03 | 55 | 1025.7 |
| 20260420194420 | 3 | 327 | 9.7 | 12.9 | 0.00 | 0.03 | 0.03 | 54 | 1026.0 |
| 20260420193915 | 5 | 349 | 17.7 | 22.5 | 0.00 | 0.03 | 0.03 | 51 | 1026.0 |
| 20260420193411 | 5 | 333 | 14.5 | 17.7 | 0.00 | 0.03 | 0.03 | 54 | 1025.9 |
| 20260420192908 | 3 | 324 | 14.5 | 17.7 | 0.00 | 0.03 | 0.03 | 57 | 1025.9 |
| 20260420192407 | 3 | 351 | 22.5 | 25.7 | 0.00 | 0.03 | 0.03 | 55 | 1026.0 |
| 20260420191903 | 4 | 346 | 16.1 | 20.9 | 0.00 | 0.03 | 0.03 | 54 | 1025.7 |
| 20260420191358 | 5 | 322 | 19.3 | 25.7 | 0.00 | 0.03 | 0.03 | 52 | 1025.6 |
| 20260420190855 | 5 | 253 | 9.7 | 12.9 | 0.00 | 0.03 | 0.03 | 52 | 1025.5 |
| 20260420190351 | 4 | 307 | 17.7 | 20.9 | 0.00 | 0.03 | 0.03 | 53 | 1025.5 |
| 20260420185846 | 5 | 346 | 17.7 | 24.1 | 0.00 | 0.03 | 0.03 | 55 | 1025.6 |
| 20260420185344 | 5 | 354 | 19.3 | 22.5 | 0.00 | 0.03 | 0.03 | 54 | 1025.9 |
| 20260420184840 | 5 | 282 | 9.7 | 12.9 | 0.00 | 0.03 | 0.03 | 54 | 1025.7 |
| 20260420184336 | 5 | 278 | 17.7 | 20.9 | 0.00 | 0.03 | 0.03 | 52 | 1025.7 |
| 20260420183831 | 4 | 332 | 14.5 | 16.1 | 0.00 | 0.03 | 0.03 | 58 | 1025.5 |
| 20260420183326 | 4 | 327 | 16.1 | 17.7 | 0.00 | 0.03 | 0.03 | 55 | 1025.8 |
| 20260420182823 | 4 | 306 | 17.7 | 17.7 | 0.00 | 0.03 | 0.03 | 56 | 1025.6 |
| 20260420182321 | 3 | 316 | 16.1 | 17.7 | 0.00 | 0.03 | 0.03 | 56 | 1025.6 |
| 20260420181818 | 3 | 303 | 16.1 | 17.7 | 0.00 | 0.03 | 0.03 | 59 | 1025.7 |
| 20260420181315 | 3 | 353 | 14.5 | 25.7 | 0.00 | 0.03 | 0.03 | 58 | 1025.5 |
| 20260420180814 | 3 | 317 | 20.9 | 27.4 | 0.00 | 0.03 | 0.03 | 59 | 1025.9 |
| 20260420180309 | 3 | 274 | 11.3 | 14.5 | 0.00 | 0.03 | 0.03 | 57 | 1025.8 |
| 20260420175805 | 3 | 321 | 14.5 | 17.7 | 0.00 | 0.03 | 0.03 | 60 | 1025.8 |
| 20260420175300 | 3 | 4 | 11.3 | 17.7 | 0.00 | 0.03 | 0.03 | 58 | 1025.5 |
| 20260420174757 | 3 | 26 | 11.3 | 14.5 | 0.00 | 0.03 | 0.03 | 57 | 1025.6 |
| 20260420174254 | 3 | 332 | 17.7 | 20.9 | 0.00 | 0.03 | 0.03 | 61 | 1025.5 |
| 20260420173751 | 3 | 335 | 12.9 | 17.7 | 0.00 | 0.03 | 0.03 | 61 | 1025.8 |
| 20260420173249 | 3 | 341 | 11.3 | 14.5 | 0.00 | 0.03 | 0.03 | 60 | 1025.4 |
| 20260420172746 | 3 | 303 | 11.3 | 14.5 | 0.00 | 0.03 | 0.03 | 60 | 1025.4 |
| 20260420172243 | 3 | 311 | 11.3 | 12.9 | 0.00 | 0.03 | 0.03 | 60 | 1025.6 |
| 20260420171742 | 3 | 320 | 12.9 | 16.1 | 0.00 | 0.03 | 0.03 | 60 | 1025.7 |
| 20260420171240 | 3 | 13 | 9.7 | 11.3 | 0.00 | 0.03 | 0.03 | 59 | 1025.9 |
| 20260420170738 | 3 | 268 | 16.1 | 17.7 | 0.00 | 0.03 | 0.03 | 62 | 1025.6 |
| 20260420170234 | 4 | 326 | 12.9 | 14.5 | 0.00 | 0.03 | 0.03 | 61 | 1025.4 |
| 20260420165730 | 4 | 299 | 19.3 | 24.1 | 0.00 | 0.03 | 0.03 | 61 | 1025.6 |
| 20260420165229 | 4 | 357 | 17.7 | 22.5 | 0.00 | 0.03 | 0.03 | 62 | 1025.6 |
| 20260420164727 | 3 | 12 | 16.1 | 17.7 | 0.00 | 0.03 | 0.03 | 59 | 1025.5 |
| 20260420164224 | 3 | 354 | 22.5 | 27.4 | 0.00 | 0.03 | 0.03 | 62 | 1025.7 |
| 20260420163721 | 4 | 319 | 14.5 | 17.7 | 0.00 | 0.03 | 0.03 | 64 | 1025.7 |
| 20260420163219 | 3 | 322 | 6.4 | 8.0 | 0.00 | 0.03 | 0.03 | 65 | 1025.7 |
| 20260420162718 | 2 | 281 | 11.3 | 12.9 | 0.00 | 0.03 | 0.03 | 65 | 1025.7 |
| 20260420162214 | 3 | 311 | 11.3 | 12.9 | 0.00 | 0.03 | 0.03 | 65 | 1025.6 |
| 20260420161709 | 2 | 313 | 16.1 | 20.9 | 0.00 | 0.03 | 0.03 | 65 | 1025.8 |
| 20260420161206 | 2 | 4 | 20.9 | 25.7 | 0.00 | 0.03 | 0.03 | 66 | 1025.7 |
| 20260420160703 | 2 | 2 | 19.3 | 22.5 | 0.00 | 0.03 | 0.03 | 64 | 1025.8 |
| 20260420160157 | 3 | 13 | 6.4 | 9.7 | 0.00 | 0.03 | 0.03 | 65 | 1025.7 |
| 20260420155653 | 2 | 336 | 16.1 | 20.9 | 0.00 | 0.03 | 0.03 | 66 | 1025.8 |
| 20260420155149 | 2 | 314 | 9.7 | 11.3 | 0.00 | 0.03 | 0.03 | 65 | 1025.6 |
| 20260420154644 | 2 | 22 | 8.0 | 11.3 | 0.00 | 0.03 | 0.03 | 67 | 1025.5 |
| 20260420154141 | 2 | 350 | 11.3 | 12.9 | 0.00 | 0.03 | 0.03 | 66 | 1025.6 |
| 20260420153638 | 3 | 334 | 17.7 | 22.5 | 0.00 | 0.03 | 0.03 | 67 | 1025.6 |
| 20260420153135 | 2 | 291 | 9.7 | 11.3 | 0.00 | 0.03 | 0.03 | 69 | 1025.4 |
| 20260420152633 | 2 | 341 | 17.7 | 22.5 | 0.00 | 0.03 | 0.03 | 67 | 1025.5 |
| 20260420152129 | 2 | 281 | 9.7 | 12.9 | 0.00 | 0.03 | 0.03 | 67 | 1025.4 |
| 20260420151626 | 1 | 348 | 9.7 | 11.3 | 0.00 | 0.03 | 0.03 | 71 | 1025.8 |
| 20260420151122 | 2 | 355 | 24.1 | 29.0 | 0.00 | 0.03 | 0.03 | 71 | 1025.5 |
| 20260420150619 | 2 | 281 | 14.5 | 17.7 | 0.00 | 0.03 | 0.03 | 73 | 1025.5 |
| 20260420150116 | 1 | 259 | 6.4 | 8.0 | 0.00 | 0.03 | 0.03 | 75 | 1025.6 |
| 20260420145612 | 1 | 351 | 11.3 | 12.9 | 0.00 | 0.03 | 0.03 | 73 | 1025.7 |
| 20260420145107 | 1 | 20 | 14.5 | 17.7 | 0.00 | 0.03 | 0.03 | 72 | 1025.6 |
| 20260420144605 | 1 | 19 | 6.4 | 9.7 | 0.00 | 0.03 | 0.03 | 75 | 1025.4 |
| 20260420144101 | 1 | 277 | 9.7 | 11.3 | 0.00 | 0.03 | 0.03 | 73 | 1025.3 |
| 20260420143557 | 1 | 328 | 6.4 | 8.0 | 0.00 | 0.03 | 0.03 | 72 | 1025.2 |
| 20260420143053 | 1 | 271 | 11.3 | 14.5 | 0.00 | 0.03 | 0.03 | 74 | 1025.4 |
| 20260420142550 | 1 | 305 | 14.5 | 16.1 | 0.00 | 0.03 | 0.03 | 72 | 1025.3 |
| 20260420142048 | 1 | 282 | 8.0 | 8.0 | 0.00 | 0.03 | 0.03 | 73 | 1025.2 |
| 20260420141545 | 1 | 295 | 17.7 | 20.9 | 0.00 | 0.03 | 0.03 | 72 | 1025.1 |
| 20260420141042 | 1 | 288 | 6.4 | 9.7 | 0.00 | 0.03 | 0.03 | 75 | 1025.2 |
| 20260420140538 | 1 | 269 | 8.0 | 9.7 | 0.00 | 0.03 | 0.03 | 76 | 1025.2 |
| 20260420140035 | 1 | 312 | 8.0 | 9.7 | 0.00 | 0.03 | 0.03 | 75 | 1025.0 |
| 20260420135531 | 1 | 340 | 6.4 | 8.0 | 0.00 | 0.03 | 0.03 | 73 | 1025.0 |
| 20260420135027 | 1 | 272 | 3.2 | 3.2 | 0.00 | 0.03 | 0.03 | 71 | 1024.8 |
| 20260420134521 | 1 | 302 | 11.3 | 14.5 | 0.00 | 0.03 | 0.03 | 69 | 1024.5 |
| 20260420134019 | 1 | 0 | 9.7 | 11.3 | 0.00 | 0.03 | 0.03 | 76 | 1024.7 |
| 20260420133514 | 1 | 305 | 11.3 | 14.5 | 0.18 | 0.03 | 0.03 | 77 | 1024.8 |
| 20260420133011 | 1 | 44 | 14.5 | 14.5 | 0.18 | 0.03 | 0.03 | 80 | 1024.8 |
| 20260420132506 | 1 | 357 | 11.3 | 16.1 | 0.00 | 0.00 | 0.00 | 83 | 1024.7 |
| 20260420132003 | 0 | 3 | 6.4 | 8.0 | 0.00 | 0.00 | 0.00 | 83 | 1024.7 |
| 20260420131459 | 1 | 295 | 8.0 | 9.7 | 0.00 | 0.00 | 0.00 | 86 | 1024.5 |
| 20260420130955 | 0 | 327 | 9.7 | 16.1 | 0.00 | 0.00 | 0.00 | 85 | 1024.5 |
| 20260420130451 | 1 | 297 | 3.2 | 3.2 | 0.00 | 0.00 | 0.00 | 88 | 1024.7 |
| 20260420125950 | 1 | 322 | 14.5 | 16.1 | 0.00 | 0.00 | 0.00 | 89 | 1024.4 |
| 20260420125447 | 1 | 309 | 4.8 | 4.8 | 0.00 | 0.00 | 0.00 | 91 | 1024.1 |
| 20260420124943 | 1 | 301 | 6.4 | 9.7 | 0.00 | 0.00 | 0.00 | 91 | 1024.3 |
| 20260420124439 | 1 | 351 | 9.7 | 11.3 | 0.00 | 0.00 | 0.00 | 92 | 1024.1 |
| 20260420123936 | 1 | 336 | 6.4 | 9.7 | 0.00 | 0.00 | 0.00 | 92 | 1024.3 |
| 20260420123432 | 1 | 329 | 12.9 | 14.5 | 0.00 | 0.00 | 0.00 | 92 | 1024.2 |
| 20260420122928 | 1 | 301 | 11.3 | 12.9 | 0.00 | 0.00 | 0.00 | 93 | 1023.9 |
| 20260420122424 | 1 | 5 | 8.0 | 9.7 | 0.00 | 0.00 | 0.00 | 94 | 1023.9 |
| 20260420121921 | 0 | 313 | 12.9 | 14.5 | 0.00 | 0.00 | 0.00 | 94 | 1023.9 |
| 20260420121418 | 0 | 323 | 8.0 | 9.7 | 0.00 | 0.00 | 0.00 | 96 | 1024.0 |
| 20260420120916 | 0 | 302 | 3.2 | 4.8 | 0.00 | 0.00 | 0.00 | 96 | 1023.7 |
| 20260420120412 | 0 | 310 | 4.8 | 8.0 | 0.00 | 0.00 | 0.00 | 96 | 1023.6 |
| 20260420115908 | 0 | 324 | 6.4 | 9.7 | 0.00 | 0.00 | 0.00 | 97 | 1023.6 |
| 20260420115403 | 0 | 304 | 8.0 | 9.7 | 0.00 | 0.00 | 0.00 | 97 | 1023.5 |
| 20260420114901 | 0 | 301 | 4.8 | 4.8 | 0.00 | 0.00 | 0.00 | 97 | 1023.2 |
| 20260420114357 | 0 | 265 | 0.0 | 0.0 | 0.00 | 0.00 | 0.00 | 97 | 1023.4 |
| 20260420113855 | 0 | 292 | 6.4 | 9.7 | 0.00 | 0.00 | 0.00 | 97 | 1023.3 |
| 20260420113350 | 0 | 307 | 4.8 | 4.8 | 0.00 | 0.00 | 0.00 | 96 | 1023.0 |
| 20260420112846 | 0 | 279 | 9.7 | 12.9 | 0.00 | 0.00 | 0.00 | 96 | 1023.2 |
| 20260420112342 | 0 | 282 | 3.2 | 4.8 | 0.00 | 0.00 | 0.00 | 97 | 1023.1 |
| 20260420111839 | 0 | 269 | 0.0 | 1.6 | 0.00 | 0.00 | 0.00 | 97 | 1022.8 |
| 20260420111338 | 0 | 254 | 0.0 | 0.0 | 0.00 | 0.00 | 0.00 | 97 | 1022.7 |
| 20260420110835 | 0 | 273 | 3.2 | 3.2 | 0.00 | 0.00 | 0.00 | 97 | 1022.7 |
| 20260420110331 | 0 | 265 | 0.0 | 1.6 | 0.00 | 0.00 | 0.00 | 97 | 1022.5 |
| 20260420105827 | 0 | 242 | 0.0 | 0.0 | 0.00 | 0.00 | 0.00 | 96 | 1022.5 |
| 20260420105323 | 0 | 277 | 1.6 | 1.6 | 0.00 | 0.00 | 0.00 | 95 | 1022.6 |
| 20260420104818 | 1 | 4 | 6.4 | 8.0 | 0.00 | 0.00 | 0.00 | 92 | 1022.1 |
| 20260420104315 | 1 | 313 | 6.4 | 8.0 | 0.00 | 0.00 | 0.00 | 90 | 1021.9 |
| 20260420103812 | 2 | 311 | 11.3 | 12.9 | 0.00 | 0.00 | 0.00 | 88 | 1021.9 |
| 20260420103309 | 2 | 277 | 4.8 | 4.8 | 0.00 | 0.00 | 0.00 | 87 | 1021.9 |
| 20260420102806 | 2 | 295 | 8.0 | 11.3 | 0.00 | 0.00 | 0.00 | 88 | 1021.9 |
| 20260420102306 | 2 | 268 | 3.2 | 4.8 | 0.00 | 0.00 | 0.00 | 88 | 1021.8 |
| 20260420101759 | 2 | 338 | 6.4 | 9.7 | 0.00 | 0.00 | 0.00 | 89 | 1021.7 |
| 20260420101256 | 2 | 267 | 1.6 | 3.2 | 0.00 | 0.00 | 0.00 | 89 | 1021.6 |
| 20260420100753 | 2 | 290 | 3.2 | 3.2 | 0.00 | 0.00 | 0.00 | 90 | 1021.6 |
| 20260420100249 | 2 | 300 | 4.8 | 8.0 | 0.00 | 0.00 | 0.00 | 90 | 1021.0 |
| 20260420095747 | 2 | 259 | 1.6 | 1.6 | 0.00 | 0.00 | 0.00 | 90 | 1021.3 |
| 20260420095245 | 2 | 291 | 3.2 | 3.2 | 0.00 | 0.00 | 0.00 | 90 | 1021.4 |
| 20260420094738 | 2 | 241 | 1.6 | 1.6 | 0.00 | 0.00 | 0.00 | 91 | 1021.3 |
| 20260420094236 | 2 | 258 | 0.0 | 1.6 | 0.00 | 0.00 | 0.00 | 91 | 1021.2 |
| 20260420093733 | 2 | 277 | 1.6 | 3.2 | 0.00 | 0.00 | 0.00 | 92 | 1021.3 |
| 20260420093228 | 2 | 263 | 0.0 | 0.0 | 0.00 | 0.00 | 0.00 | 92 | 1021.2 |
| 20260420092724 | 2 | 266 | 1.6 | 1.6 | 0.00 | 0.00 | 0.00 | 92 | 1021.0 |
| 20260420092220 | 2 | 263 | 3.2 | 4.8 | 0.00 | 0.00 | 0.00 | 92 | 1021.2 |
| 20260420091717 | 2 | 262 | 0.0 | 1.6 | 0.00 | 0.00 | 0.00 | 92 | 1021.2 |
| 20260420091214 | 2 | 263 | 1.6 | 3.2 | 0.00 | 0.00 | 0.00 | 91 | 1021.4 |
| 20260420090711 | 2 | 271 | 4.8 | 4.8 | 0.00 | 0.00 | 0.00 | 92 | 1020.7 |
| 20260420090209 | 2 | 280 | 4.8 | 4.8 | 0.00 | 0.00 | 0.00 | 92 | 1020.9 |
| 20260420085706 | 2 | 293 | 3.2 | 4.8 | 0.00 | 0.00 | 0.00 | 92 | 1020.9 |
| 20260420085202 | 2 | 253 | 0.0 | 0.0 | 0.00 | 0.00 | 0.00 | 92 | 1021.0 |
| 20260420084700 | 2 | 259 | 1.6 | 1.6 | 0.00 | 0.00 | 0.00 | 92 | 1020.9 |
| 20260420084159 | 2 | 253 | 1.6 | 3.2 | 0.00 | 0.00 | 0.00 | 92 | 1021.0 |
| 20260420083653 | 2 | 277 | 3.2 | 3.2 | 0.00 | 0.00 | 0.00 | 92 | 1021.0 |
| 20260420083151 | 2 | 296 | 4.8 | 4.8 | 0.00 | 0.00 | 0.00 | 92 | 1021.0 |
| 20260420082648 | 2 | 270 | 3.2 | 3.2 | 0.00 | 0.00 | 0.00 | 92 | 1021.0 |
| 20260420082145 | 2 | 259 | 0.0 | 1.6 | 0.00 | 0.00 | 0.00 | 92 | 1020.9 |
| 20260420081643 | 2 | 270 | 3.2 | 3.2 | 0.00 | 0.00 | 0.00 | 91 | 1020.9 |
| 20260420081141 | 2 | 347 | 8.0 | 9.7 | 0.00 | 0.00 | 0.00 | 92 | 1020.7 |
| 20260420080639 | 2 | 335 | 9.7 | 11.3 | 0.00 | 0.00 | 0.00 | 94 | 1020.5 |
| 20260420080135 | 2 | 255 | 0.0 | 0.0 | 0.00 | 0.00 | 0.00 | 95 | 1020.7 |
| 20260420075632 | 2 | 276 | 3.2 | 3.2 | 0.00 | 0.00 | 0.00 | 94 | 1020.6 |
| 20260420075128 | 2 | 347 | 4.8 | 8.0 | 0.00 | 0.00 | 0.00 | 95 | 1020.4 |
| 20260420074625 | 2 | 312 | 6.4 | 9.7 | 0.00 | 0.00 | 0.00 | 96 | 1020.6 |
| 20260420074122 | 2 | 256 | 0.0 | 0.0 | 0.00 | 0.00 | 0.00 | 96 | 1020.3 |
| 20260420073618 | 2 | 261 | 0.0 | 0.0 | 0.00 | 0.00 | 0.00 | 95 | 1020.6 |
| 20260420073115 | 2 | 286 | 4.8 | 8.0 | 0.00 | 0.00 | 0.00 | 94 | 1020.9 |
| 20260420072612 | 2 | 278 | 4.8 | 4.8 | 0.00 | 0.00 | 0.00 | 92 | 1020.7 |
| 20260420072109 | 2 | 297 | 12.9 | 16.1 | 0.00 | 0.00 | 0.00 | 90 | 1020.5 |
| 20260420071605 | 3 | 308 | 9.7 | 11.3 | 0.00 | 0.00 | 0.00 | 88 | 1020.6 |
| 20260420071102 | 3 | 308 | 4.8 | 4.8 | 0.00 | 0.00 | 0.00 | 88 | 1020.6 |
| 20260420070558 | 3 | 265 | 1.6 | 3.2 | 0.00 | 0.00 | 0.00 | 87 | 1020.5 |
| 20260420070054 | 3 | 320 | 9.7 | 11.3 | 0.00 | 0.00 | 0.00 | 86 | 1020.5 |
| 20260420065552 | 3 | 277 | 8.0 | 9.7 | 0.00 | 0.00 | 0.00 | 86 | 1020.5 |
| 20260420065049 | 3 | 326 | 9.7 | 11.3 | 0.00 | 0.00 | 0.00 | 82 | 1020.6 |
| 20260420064545 | 3 | 318 | 6.4 | 8.0 | 0.00 | 0.00 | 0.00 | 81 | 1020.5 |
| 20260420064043 | 4 | 289 | 9.7 | 11.3 | 0.00 | 0.00 | 0.00 | 81 | 1020.1 |
| 20260420063538 | 4 | 322 | 12.9 | 14.5 | 0.00 | 0.00 | 0.00 | 80 | 1020.5 |
| 20260420063035 | 3 | 276 | 4.8 | 4.8 | 0.00 | 0.00 | 0.00 | 81 | 1020.4 |
| 20260420062532 | 3 | 270 | 4.8 | 4.8 | 0.00 | 0.00 | 0.00 | 82 | 1020.4 |
| 20260420062030 | 3 | 260 | 3.2 | 3.2 | 0.00 | 0.00 | 0.00 | 81 | 1020.5 |
| 20260420061526 | 3 | 263 | 1.6 | 3.2 | 0.00 | 0.00 | 0.00 | 82 | 1020.5 |
| 20260420061022 | 3 | 275 | 4.8 | 8.0 | 0.00 | 0.00 | 0.00 | 83 | 1020.4 |
| 20260420060518 | 3 | 279 | 4.8 | 8.0 | 0.00 | 0.00 | 0.00 | 84 | 1020.3 |
| 20260420060016 | 3 | 268 | 1.6 | 1.6 | 0.00 | 0.00 | 0.00 | 84 | 1020.5 |
| 20260420055513 | 3 | 258 | 0.0 | 0.0 | 0.00 | 0.00 | 0.00 | 84 | 1020.3 |
| 20260420055011 | 3 | 302 | 0.0 | 3.2 | 0.00 | 0.00 | 0.00 | 84 | 1020.5 |
| 20260420054506 | 3 | 283 | 1.6 | 1.6 | 0.00 | 0.00 | 0.00 | 83 | 1020.4 |
| 20260420054003 | 3 | 246 | 0.0 | 0.0 | 0.00 | 0.00 | 0.00 | 83 | 1020.2 |
| 20260420053459 | 3 | 240 | 0.0 | 0.0 | 0.00 | 0.00 | 0.00 | 83 | 1020.3 |
| 20260420052957 | 3 | 246 | 1.6 | 1.6 | 0.00 | 0.00 | 0.00 | 83 | 1020.3 |
| 20260420052454 | 3 | 286 | 3.2 | 3.2 | 0.00 | 0.00 | 0.00 | 83 | 1020.4 |
| 20260420051951 | 3 | 268 | 1.6 | 3.2 | 0.00 | 0.00 | 0.00 | 82 | 1020.3 |
| 20260420051448 | 3 | 246 | 1.6 | 3.2 | 0.00 | 0.00 | 0.00 | 83 | 1020.5 |
| 20260420050946 | 3 | 288 | 6.4 | 9.7 | 0.00 | 0.00 | 0.00 | 82 | 1020.5 |
| 20260420050442 | 3 | 265 | 3.2 | 4.8 | 0.00 | 0.00 | 0.00 | 82 | 1020.2 |
| 20260420045940 | 3 | 268 | 1.6 | 3.2 | 0.00 | 0.00 | 0.00 | 82 | 1020.2 |
| 20260420045436 | 3 | 257 | 3.2 | 3.2 | 0.00 | 0.00 | 0.00 | 82 | 1020.4 |
| 20260420044933 | 3 | 269 | 3.2 | 3.2 | 0.00 | 0.00 | 0.00 | 81 | 1020.5 |
| 20260420044429 | 4 | 262 | 1.6 | 1.6 | 0.00 | 0.00 | 0.00 | 80 | 1020.5 |
| 20260420043926 | 3 | 274 | 3.2 | 4.8 | 0.00 | 0.00 | 0.00 | 80 | 1020.5 |
| 20260420043423 | 4 | 288 | 11.3 | 14.5 | 0.00 | 0.00 | 0.00 | 80 | 1020.5 |
| 20260420042919 | 3 | 255 | 3.2 | 4.8 | 0.00 | 0.00 | 0.00 | 80 | 1020.3 |
| 20260420042415 | 3 | 264 | 4.8 | 4.8 | 0.00 | 0.00 | 0.00 | 81 | 1020.5 |
| 20260420041910 | 3 | 272 | 4.8 | 4.8 | 0.00 | 0.00 | 0.00 | 81 | 1020.6 |
| 20260420041406 | 3 | 258 | 1.6 | 1.6 | 0.00 | 0.00 | 0.00 | 80 | 1020.5 |
| 20260420040903 | 4 | 276 | 4.8 | 8.0 | 0.00 | 0.00 | 0.00 | 79 | 1020.6 |
| 20260420040401 | 4 | 257 | 6.4 | 9.7 | 0.00 | 0.00 | 0.00 | 79 | 1020.4 |
| 20260420035857 | 4 | 269 | 4.8 | 8.0 | 0.00 | 0.10 | 0.10 | 79 | 1020.5 |
| 20260420035354 | 4 | 308 | 1.6 | 1.6 | 0.00 | 0.10 | 0.10 | 78 | 1020.5 |
| 20260420034850 | 4 | 314 | 4.8 | 4.8 | 0.00 | 0.10 | 0.10 | 77 | 1020.7 |
| 20260420034347 | 4 | 283 | 4.8 | 8.0 | 0.00 | 0.10 | 0.10 | 77 | 1020.7 |
| 20260420033844 | 4 | 272 | 4.8 | 8.0 | 0.00 | 0.10 | 0.10 | 77 | 1020.5 |
| 20260420033342 | 4 | 292 | 8.0 | 11.3 | 0.00 | 0.10 | 0.10 | 77 | 1020.6 |
| 20260420032839 | 4 | 279 | 8.0 | 14.5 | 0.00 | 0.10 | 0.10 | 76 | 1020.5 |
| 20260420032335 | 4 | 333 | 6.4 | 8.0 | 0.00 | 0.10 | 0.10 | 76 | 1020.6 |
| 20260420031833 | 4 | 271 | 3.2 | 4.8 | 0.00 | 0.10 | 0.10 | 77 | 1020.7 |
| 20260420031327 | 4 | 277 | 4.8 | 4.8 | 0.00 | 0.10 | 0.10 | 76 | 1020.9 |
| 20260420030823 | 5 | 274 | 3.2 | 3.2 | 0.00 | 0.10 | 0.10 | 75 | 1020.8 |
| 20260420030319 | 5 | 256 | 3.2 | 3.2 | 0.00 | 0.10 | 0.10 | 75 | 1020.8 |
| 20260420025814 | 5 | 271 | 4.8 | 8.0 | 0.00 | 0.10 | 0.10 | 73 | 1020.9 |
| 20260420025311 | 5 | 293 | 4.8 | 4.8 | 0.00 | 0.10 | 0.10 | 74 | 1020.7 |
| 20260420024809 | 5 | 284 | 4.8 | 8.0 | 0.00 | 0.10 | 0.10 | 73 | 1020.9 |
| 20260420024305 | 5 | 275 | 4.8 | 4.8 | 0.00 | 0.10 | 0.10 | 73 | 1020.9 |
| 20260420023803 | 5 | 294 | 6.4 | 8.0 | 0.00 | 0.10 | 0.10 | 74 | 1020.9 |
| 20260420023300 | 5 | 262 | 1.6 | 3.2 | 0.00 | 0.10 | 0.10 | 73 | 1020.8 |
| 20260420022756 | 5 | 270 | 4.8 | 4.8 | 0.00 | 0.10 | 0.10 | 73 | 1020.6 |
| 20260420022252 | 5 | 280 | 3.2 | 3.2 | 0.00 | 0.10 | 0.10 | 72 | 1020.7 |
| 20260420021749 | 5 | 301 | 8.0 | 9.7 | 0.00 | 0.10 | 0.10 | 70 | 1020.6 |
| 20260420021246 | 5 | 330 | 8.0 | 9.7 | 0.00 | 0.10 | 0.10 | 69 | 1020.6 |
| 20260420020744 | 5 | 289 | 8.0 | 11.3 | 0.00 | 0.10 | 0.10 | 68 | 1020.5 |
| 20260420020241 | 5 | 288 | 6.4 | 8.0 | 0.00 | 0.10 | 0.10 | 68 | 1020.7 |
| 20260420015737 | 5 | 278 | 8.0 | 12.9 | 0.00 | 0.10 | 0.10 | 68 | 1020.5 |
| 20260420015234 | 5 | 18 | 14.5 | 14.5 | 0.00 | 0.10 | 0.10 | 69 | 1020.7 |
| 20260420014732 | 6 | 326 | 11.3 | 20.9 | 0.00 | 0.10 | 0.10 | 66 | 1020.6 |
| 20260420014229 | 6 | 258 | 3.2 | 3.2 | 0.00 | 0.10 | 0.10 | 62 | 1020.5 |
| 20260420013726 | 5 | 289 | 4.8 | 4.8 | 0.00 | 0.10 | 0.10 | 63 | 1020.6 |
| 20260420013226 | 5 | 275 | 4.8 | 4.8 | 0.00 | 0.10 | 0.10 | 63 | 1020.4 |
| 20260420012722 | 5 | 290 | 1.6 | 1.6 | 0.00 | 0.10 | 0.10 | 62 | 1020.0 |
| 20260420012218 | 5 | 265 | 1.6 | 1.6 | 0.00 | 0.10 | 0.10 | 61 | 1020.1 |
| 20260420011713 | 5 | 261 | 1.6 | 1.6 | 0.00 | 0.10 | 0.10 | 62 | 1019.9 |
| 20260420011209 | 5 | 270 | 1.6 | 3.2 | 0.00 | 0.10 | 0.10 | 63 | 1019.9 |
| 20260420010706 | 5 | 272 | 3.2 | 3.2 | 0.00 | 0.10 | 0.10 | 61 | 1019.7 |
| 20260420010203 | 5 | 262 | 1.6 | 1.6 | 0.00 | 0.10 | 0.10 | 61 | 1019.7 |